User: anonymous   Login
Location: Rometta
(44.2000°N, 10.0500°E)
Time: 21:20:21
(UTC+00:00)
Language:

Cosmos 1777 Rocket - Orbit

View from above orbital plane
View from above orbital plane
View from above satellite
View from above satellite

Ground track
Ground track

The orbit data is extracted from the following two-line orbital elements,

1 16953U 86070B   21104.50811601  .00000056  00000-0  27654-4 0  9994
2 16953  74.0127 221.5572 0011223 110.6203 249.6155 14.37421623812593
Epoch (UTC): 14 April 2021 12:11:41
Eccentricity: 0.0011223
inclination: 74.0127°
perigee height: 759 km
apogee height: 775 km
right ascension of ascending node: 221.5572°
argument of perigee: 110.6203°
revolutions per day: 14.37421623
mean anomaly at epoch: 249.6155°
orbit number at epoch: 81259

The dashed part of the orbit path shows where the satellite is in the earth's shadow,  

DLR